Weather in Bazlyk

Russia / Republic of Bashkortostan     53°45′03″N   54°16′26″E
temp.,
°C
wind,
m/s
gust,
m/s
humid.,
%
clouds,
%
prec.,
mm/h
press.,
hPa
HPBL,
m
23 october, sat
sat2323:00+9sw91780100 0.0 1007670
02:00+9wsw8168349 0.0 1008577
05:00+8wsw7149113 0.0 1009429
08:00+6sw6139639 0.0 1010346
11:00+9sw81483100 0.0 1011730
14:00+12wsw9156189 0.0 10121675
17:00+12wsw713525 0.0 10131376
20:00+10sw61365100 0.0 1014421
24 october, sun
sun2423:00+9sw51274100 0.1 1014293
02:00+8sw3879100 0.0 1014181
05:00+8ssw3681100 0.0 1012134
08:00+8s4999100 4.5 1009437
11:00+7w51096100 8.1 1009560
14:00+8w687385 0.1 1012801
17:00+9w586498 0.1 1012891
20:00+6w3878100 0.0 1014212
25 october, mon
mon2523:00+4wnw228277 0.0 101539
02:00+4w1180100 0.0 101510
05:00+3wsw0080100 0.0 101510
08:00+3n0080100 0.0 101410
11:00+5w1274100 0.0 1014218
14:00+6nw4567100 0.0 1014761
17:00+5nnw4662100 0.0 10141015
20:00+3n377370 0.0 1016168
26 october, tue
tue2623:00+1n81181100 0.0 1018705
02:000nne812715 0.0 1020855
05:00−2n713765 0.0 1022537
08:00−3n511775 0.0 1024473
11:000n585382 0.0 1025535
14:00+2n563918 0.0 1025738
17:00+2nw344530 0.0 1025254
20:00−1wsw225440 0.0 102616
27 october, wed
wed2723:000sw365499 0.0 1026159
02:00−1sw4958100 0.0 1025212
05:00−1sw410608 0.0 1025258
08:00−2sw510655 0.0 1024252
11:00+1sw69575 0.0 1024389
14:00+4sw794980 0.0 1022647
17:00+4sw61155100 0.0 1021506
20:00+2sw6126098 0.0 1021412